www.pogodaiklimat.ru

Погода и климат >> Архив погоды >> Ангилья >> Ангилья


ПОГОДА в Ангилье

  • Прогноз погоды в Ангилье
  • Монитор погоды в Ангилье

АРХИВ ПОГОДЫ в Ангилье

Время (UTC), дата Ветер
(напр.,м/с)
 
Видим.   Явления Облачность Т
(С)
Тd
(С)
f
(%)
Тe
(С)
Тes
(С)
Комфортность P
(гПа)
Po
(гПа)
Тmin
(С)
Tmax
(С)
R
(мм)
R24
(мм)
S
(см)
18 11.09 В 4 45 км осадки на расстоянии 4/4 570 м
[Cu med, cong Ci sp]
+29.6 +23.7 71 +41 +47 опасность
перегрева
1012.8 1008.6 +23.6 +31.4
12 12.09 В 4 60 км 5/4 600 м
[Cu med, cong Ci sp]
+28.8 +23.4 73 +39 +41 очень
душно
1013.6 1009.4 +23.8 +31.4 0.4
15 12.09 В 5 60 км 6/6 600 м
[Cu med, cong Ci sp]
+30.1 +24.2 71 +42 +46 опасность
перегрева
1014.5 1010.3
18 12.09 В 5 50 км 4/4 600 м
[Cu Sc Ac lent Ci sp]
+30.2 +23.6 68 +41 +46 опасность
перегрева
1012.7 1008.5 +23.8 +31.4
21 12.09 В 5 50 км 4/4 540 м
[Cu Sc Ac lent Ci sp]
+29.2 +22.9 69 +39 +40 очень
душно
1012.9 1008.7
12 13.09 ЮВ 5 35 км 6/3 570 м
[Cu med, cong Ci sp]
+29.0 +23.7 73 +40 +41 очень
душно
1014.9 1010.7 +24.5 +31.4 0.2
15 13.09 ЮВ 6 35 км 3/1 600 м
[Cu Sc Ci sp]
+30.2 +23.7 68 +41 +48 опасность
перегрева
1015.9 1011.7
18 13.09 ЮВ 4 45 км 4/1 600 м
[Cu Sc Ci sp]
+30.0 +23.2 67 +40 +49 очень
душно
1014.3 1010.1 +24.5 +32.6
21 13.09 В 5 40 км 8/4 570 м
[Cu Sc Ac lent Ci sp]
+29.4 +23.4 70 +40 +40 очень
душно
1015.0 1010.8
12 14.09 ЮВ 6 35 км 8/4 570 м
[Cu Sc Ac lent Ci sp]
+28.4 +25.2 83 +41 +42 опасность
перегрева
1016.3 1012.1 +25.2 +32.6
15 14.09 В 6 35 км {ливн. осадки} 8/4 570 м
[Cu Sc Ac lent Ci sp]
+30.2 +24.8 73 +43 +46 опасность
перегрева
1016.8 1012.6
18 14.09 В 7 35 км осадки на расстоянии 9/4 570 м
[Cu Sc Ac lent Ci sp]
+31.1 +24.3 67 +43 +45 опасность
перегрева
1015.0 1010.8 +24.4 +32.0 0.5
21 14.09 В 6 35 км 8/4 540 м
[Cu Sc Ac lent Ci sp]
+29.5 +24.2 73 +41 +41 опасность
перегрева
1015.0 1010.8
12 15.09 В 4 30 км 9/3 500 м
[Cu Sc Ac lent Ci sp]
+27.2 +24.0 83 +38 +39 очень
душно
1015.5 1011.3 +23.9 +32.0 2
15 15.09 С 7 30 км 8/5 500 м
[Cu med, cong Ci sp]
+30.3 +24.5 71 +43 +45 опасность
перегрева
1016.3 1012.1
18 15.09 В 6 28 км 9/3 500 м
[Cu med, cong Ac lent Cs]
+29.1 +23.7 73 +40 +43 очень
душно
1013.9 1009.7 +23.9 +31.8
21 15.09 В 6 30 км 9/3 600 м
[Cu med, cong Cs]
+29.0 +23.0 70 +39 +39 очень
душно
1013.7 1009.5
12 16.09 В 8 25 км осадки на расстоянии {ливн. осадки} 6/4 500 м
[Cb calv Ac lent Ci ing]
+28.5 +25.0 81 +41 +41 опасность
перегрева
1014.9 1010.7 +23.2 +31.8 3
15 16.09 В 7 23 км осадки на расстоянии 9/1 540 м
[Cu Sc Ac lent Ci ing]
+29.8 +24.2 72 +42 +44 опасность
перегрева
1016.2 1012.0
18 16.09 В 7 22 км мгла 9/4 570 м
[Cu Sc Ac lent Cs]
+29.9 +25.4 77 +44 +46 опасность
перегрева
1014.5 1010.3 +23.2 +31.8
21 16.09 В 6 20 км мгла 10/1 600 м
[Cu med, cong Ac lent Cs]
+28.9 +24.0 75 +40 +40 очень
душно
1013.9 1009.7
12 17.09 В 7 25 км мгла 5/3 570 м
[Cu med, cong Ci sp]
+29.0 +23.6 73 +40 +40 очень
душно
1014.9 1010.7 +25.0 +31.8 0.0
15 17.09 ЮВ 8 26 км мгла 9/1 600 м
[Cu med, cong Ci sp]
+30.9 +23.5 65 +42 +45 опасность
перегрева
1015.3 1011.1
18 17.09 ЮВ 7 26 км мгла 9/3 630 м
[Cu med, cong Ci sp]
+30.7 +23.6 66 +42 +45 опасность
перегрева
1013.6 1009.4 +25.0 +32.3
21 17.09 В 7 25 км мгла 8/3 540 м
[Cu med, cong Ac lent Ci sp]
+29.1 +23.9 74 +40 +41 очень
душно
1012.6 1008.4
12 18.09 В 5 27 км мгла 9/1 600 м
[Cu med, cong Cs]
+28.0 +22.6 73 +37 +39 очень
душно
1013.1 1008.9 +24.8 +32.3
15 18.09 В 6 26 км мгла 9/4 600 м
[Cu med, cong Cs]
+29.7 +23.1 68 +40 +44 очень
душно
1013.3 1009.1

 

Местоположение метеостанции Ангилья (Ангилья): широта 18.20 долгота -63.05 высота над уровнем моря 29 м.

В архиве по умолчанию представлена погода в Ангилье за последнюю неделю. Архивные данные за месяц целиком и за предыдущие месяцы, начиная с января 2011 года, Вы можете получить, выбрав интересующий диапазон дат из раскрывающегося списка и нажав кнопку "Ввод!".


*Определитесь, кто Вы:
робот инопланетянин человек

Внимание! Время в таблицах - всемирное. Для получения местного времени необходимо прибавить поправку, которая равна -4 ч.

Смотрите также архив погоды в соседних городах и на ближайших метеорологических станциях:

Погода в Принцессы Юлианы аэропорту (Нидерландские Антилы) (20 км)
Погода в Аэропорту Роберт Брэдшоу (Сент-Китс и Невис) (108 км)
Погода в Аэропорту Ванс Амори (Сент-Китс и Невис) (120 км)
Погода в Сент-Джонсе (Антигуа и Барбуда) (180 км)
Погода в Шарлотта-Амалии (Виргинские Острова) (202 км)
Погода в Пуэнт-а-Питре (Гваделупа) (264 км)
Погода в Канфилд аэропорту (Доминика) (345 км)
Погода в Дуглас-Шарль аэропорту (Доминика) (351 км)
Погода на Каравелле (Мартиника) (446 км)
Погода в Аэропорту Мартиники (Мартиника) (456 км)

Пояснения к столбцам:

Ветер - указаны скорость ветра в м/с - средняя за 10 мин, порывы в срок и между сроками (в фигурных скобках) и направление, откуда дует ветер: С - северный, СВ - северо-восточный, В - восточный, ЮВ - юго-восточный, Ю - южный, ЮЗ - юго-западный, З - западный, СЗ - северо-западный.
Видимость - горизонтальная дальность видимости в метрах или километрах. При видимости от 1 до 10 км при отсутствии осадков обычно наблюдается дымка, при ухудшении видимости до 1 км и менее - туман. В сухую погоду видимость может ухудшаться дымом, пылью или мглою.
Явления - указаны атмосферные явления, наблюдавшиеся в срок или в последний час перед сроком; фигурными скобками обозначены явления, наблюдавшиеся между сроками (за 1-3 часа до срока); квадратными скобками обозначены град или гололедные отложения с указанием их диаметра в мм.
Облачность - указаны через наклонную черту общая и нижняя облачность в баллах и высота нижней границы облаков в метрах; квадратными скобками обозначены формы облаков: Ci - перистые, Cs - перисто-слоистые, Cc - перисто-кучевые, Ac - высококучевые, As - высокослоистые, Sc - слоисто-кучевые, Ns - слоисто-дождевые, Cu - кучевые, Cb - кучево-дождевые. Подробнее классификацию облаков см. в Атласе облаков (PDF).
T - Температура воздуха - температура, измеренная на высоте 2 м над землей.
Td - Температура точки росы - температура, при понижении до которой содержащийся в воздухе водяной пар достигнет насыщения.
f - Относительная влажность воздуха - влажноcть воздуха, измеренная на высоте 2 м над землей.
Te - Эффективная температура - температура, которую ощущает одетый по сезону человек в тени. Характеристика душности погоды. При расчете учитывается влияние влажности воздуха и скорости ветра на теплоощущения человека.
Tes - Эффективная температура на солнце - температура, которую ощущает человек, с поправкой на солнечный нагрев. Характеристика знойности погоды. Зависит от высоты солнца над горизонтом, облачности и скорости ветра. Ночью, в пасмурную погоду, а также при ветре 12 м/с и более поправка равна нулю.
P - Атмосферное давление - приведенное к уровню моря атмосферное давление.
Po - Атмосферное давление - измеренное на уровне метеостанции атмосферное давление.
Tmin - Минимальная температура - минимум температуры воздуха на высоте 2 м над землей.
Tmax - Максимальная температура - максимум температуры воздуха на высоте 2 м над землей.
R - Количество осадков - Количество выпавших осадков за период времени, мм. При наведении курсора мыши на число - период времени, за который выпало указанное количество осадков.
R24 - Количество осадков - Количество выпавших осадков за 24 часа, мм.
S - Снежный покров - Высота снежного покрова, см. При наведении курсора мыши на число - состояние снежного покрова и степень покрытия местности в баллах.